Temperature
4 4 4 4 4 4 4 4 4 4 3 3 3 3 3 3 3 2 2 2 2 2 2 2 2 2 2 2 2 2 2 2 2 2 2 2 2 2 2 2 2 2 2
4 3 3 3 3 3 4 4 3 3 3 3 3 3 2 2 2 2 2 2 2 2 2 2 2 1 1 1 1 1 1 1 1 1 2 2 2 2 1 2 2 2 2
3 3 3 3 3 3 3 3 3 3 3 2 2 2 2 2 2 1 1 1 1 1 1 1 1 1 1 1 1 1 1 1 1 1 1 1 1 1 1 1 1 1 1
2 2 2 2 2 2 2 2 2 2 2 2 2 2 2 1 1 1 1 1 1 1 1 1 1 0 1 1 0 0 0 0 0 0 0 0 0 0 0 1 1 1 1
2 2 2 2 2 2 2 2 2 2 2 2 1 1 1 1 1 1 1 1 0 0 0 0 0 0 0 -0 -0 0 0 0 0 -0 -0 -0 0 0 0 -0 -0 0 0
1 1 1 1 1 2 2 2 2 1 1 1 1 1 1 0 0 0 0 0 0 0 0 -0 -0 -0 -0 -0 -1 -0 -0 -0 -0 -0 -0 -0 -0 -0 -0 -1 -1 -1 -1
1 1 1 1 1 1 1 1 1 1 1 1 0 0 0 -0 -0 -0 -0 -0 -0 -0 -0 -1 -1 -1 -1 -1 -1 -1 -1 -1 -1 -1 -1 -1 -1 -1 -1 -1 -1 -1 -1
0 1 1 1 1 1 1 1 1 0 0 0 -0 -0 -0 -0 -1 -0 -0 -1 -1 -1 -1 -1 -1 -1 -1 -1 -1 -1 -1 -1 -1 -1 -1 -1 -1 -1 -1 -1 -2 -2 -1
0 0 0 0 0 0 0 0 0 0 -0 -0 -1 -1 -1 -1 -1 -1 -1 -1 -1 -1 -1 -1 -2 -2 -1 -2 -2 -2 -1 -1 -1 -1 -1 -1 -1 -1 -2 -2 -2 -2 -2
-0 -0 -0 -0 -0 -0 -0 -0 -0 -0 -0 -1 -1 -1 -1 -1 -1 -1 -1 -1 -2 -2 -2 -2 -2 -2 -2 -2 -2 -2 -2 -2 -2 -1 -2 -2 -2 -2 -2 -2 -2 -3 -3
-1 -1 -1 -1 -1 -1 -1 -1 -1 -1 -1 -1 -1 -1 -1 -1 -1 -1 -2 -2 -2 -2 -2 -2 -2 -2 -2 -2 -2 -2 -2 -2 -2 -2 -2 -2 -2 -2 -2 -2 -3 -3 -3
-1 -1 -1 -1 -1 -1 -1 -1 -1 -1 -1 -1 -2 -2 -2 -2 -2 -2 -2 -2 -2 -2 -2 -3 -3 -3 -3 -3 -3 -3 -3 -3 -3 -3 -2 -2 -2 -2 -2 -3 -3 -3 -3
-2 -2 -2 -2 -2 -2 -2 -2 -2 -2 -2 -2 -2 -2 -2 -2 -2 -3 -3 -3 -3 -3 -3 -3 -3 -3 -3 -3 -3 -3 -3 -3 -3 -3 -3 -3 -3 -3 -3 -3 -3 -4 -4
-2 -2 -2 -2 -2 -2 -2 -2 -2 -2 -2 -3 -3 -3 -3 -3 -3 -3 -3 -3 -3 -3 -3 -3 -3 -3 -3 -3 -3 -3 -3 -3 -3 -3 -3 -3 -3 -3 -3 -3 -4 -4 -4
-3 -3 -3 -3 -3 -3 -3 -3 -3 -3 -3 -3 -3 -3 -3 -3 -3 -3 -3 -3 -3 -3 -3 -3 -3 -3 -3 -3 -3 -3 -3 -4 -4 -4 -4 -4 -4 -4 -4 -4 -4 -4 -4
-4 -4 -4 -4 -4 -4 -3 -3 -3 -3 -3 -3 -3 -3 -3 -3 -3 -3 -4 -4 -4 -4 -4 -4 -4 -4 -4 -3 -4 -4 -4 -4 -4 -4 -4 -4 -4 -4 -4 -4 -5 -5 -5
-4 -4 -4 -4 -4 -4 -4 -4 -4 -4 -4 -4 -4 -4 -4 -4 -4 -4 -4 -4 -4 -4 -4 -4 -4 -4 -4 -4 -4 -4 -4 -4 -4 -4 -4 -4 -4 -4 -5 -5 -5 -5 -5
-4 -4 -4 -4 -4 -5 -5 -5 -5 -5 -4 -4 -4 -4 -4 -4 -4 -4 -4 -4 -4 -4 -4 -5 -4 -4 -4 -4 -4 -4 -4 -4 -4 -4 -5 -5 -5 -5 -5 -5 -5 -5 -6
-5 -5 -5 -5 -5 -5 -5 -5 -5 -5 -5 -5 -5 -5 -5 -5 -5 -5 -5 -5 -5 -5 -5 -5 -5 -5 -4 -4 -4 -4 -5 -5 -5 -5 -5 -5 -5 -5 -5 -5 -6 -6 -6
-5 -5 -5 -5 -5 -5 -5 -5 -5 -5 -5 -5 -5 -5 -5 -5 -5 -5 -5 -5 -5 -5 -5 -5 -5 -5 -5 -5 -5 -5 -5 -5 -5 -5 -5 -5 -5 -5 -6 -6 -6 -6 -6
-5 -5 -5 -5 -6 -6 -6 -6 -6 -5 -5 -5 -6 -6 -6 -6 -6 -5 -5 -5 -5 -5 -5 -5 -5 -5 -5 -5 -5 -5 -5 -5 -5 -5 -6 -6 -5 -6 -6 -6 -6 -6 -6
-6 -6 -6 -6 -6 -6 -6 -6 -6 -6 -6 -6 -6 -6 -6 -6 -6 -6 -6 -6 -5 -5 -5 -5 -5 -5 -5 -5 -5 -5 -6 -6 -6 -6 -6 -6 -6 -6 -6 -6 -6 -6 -6
-6 -6 -6 -6 -6 -6 -6 -6 -6 -6 -6 -6 -6 -6 -6 -6 -6 -6 -6 -5 -6 -6 -6 -5 -5 -5 -5 -5 -6 -6 -6 -6 -6 -6 -6 -6 -6 -6 -6 -6 -6 -6 -7
-6 -6 -6 -7 -7 -6 -6 -6 -7 -7 -7 -7 -7 -6 -6 -6 -6 -6 -6 -6 -6 -6 -6 -6 -6 -5 -5 -5 -6 -6 -6 -6 -6 -6 -6 -6 -6 -6 -6 -6 -6 -7 -7
-7 -7 -7 -7 -7 -7 -7 -7 -7 -7 -7 -7 -7 -7 -6 -6 -6 -6 -6 -6 -6 -6 -6 -6 -6 -6 -6 -6 -6 -6 -6 -6 -6 -6 -6 -6 -6 -6 -6 -6 -6 -7 -7
-7 -7 -7 -7 -7 -7 -7 -7 -7 -7 -7 -7 -7 -7 -7 -6 -6 -6 -6 -6 -6 -6 -6 -6 -6 -6 -6 -6 -6 -6 -6 -6 -6 -6 -6 -6 -6 -6 -6 -6 -7 -7 -7
Wind_Speed
4 4 4 4 4 4 4 5 4 4 4 5 5 5 5 4 5 5 5 4 5 4 4 4 5 4 3 3 3 3 3 4 5 4 3 3 3 4 6 7 8 7 8
4 3 4 4 3 4 4 4 4 4 4 5 4 5 5 5 5 6 6 5 5 6 6 5 5 4 4 3 3 4 4 4 4 5 4 3 3 3 4 5 6 6 6
3 3 3 3 3 4 4 4 4 4 4 4 4 5 5 5 5 6 6 6 6 6 6 6 6 5 5 4 4 4 4 4 4 4 5 3 3 2 3 4 5 4 5
3 3 4 4 4 4 4 3 3 4 4 4 5 5 5 5 6 6 6 6 6 6 6 6 6 6 6 6 5 5 4 4 3 4 4 4 3 2 2 3 4 3 4
3 3 4 4 3 3 3 3 3 3 4 4 5 5 5 5 5 6 6 6 6 5 5 6 6 6 7 6 5 4 4 4 3 4 4 3 3 2 3 2 4 4 4
3 4 4 3 2 3 3 3 3 3 3 3 4 5 5 5 6 8 6 5 5 5 5 5 5 6 7 8 9 7 6 5 5 4 4 4 5 4 3 3 3 3 3
4 4 3 3 3 3 3 3 3 3 3 4 4 4 5 6 7 7 7 5 5 5 5 5 5 5 5 5 6 7 7 8 7 6 6 6 5 4 3 3 3 3 4
4 4 3 3 3 3 3 3 3 3 4 4 4 4 4 5 7 7 6 5 5 5 5 6 5 5 5 5 5 5 5 6 7 6 6 6 5 4 4 4 4 2 2
4 4 3 3 3 3 3 4 3 3 4 4 4 4 4 5 6 6 5 4 4 5 5 5 5 5 7 6 5 5 5 5 6 7 7 6 6 5 3 2 1 1 2
4 4 4 3 3 4 4 3 3 3 4 3 4 4 4 5 6 5 4 3 3 3 3 4 6 6 7 6 5 5 6 5 3 3 3 4 4 3 3 3 3 3 2
4 3 3 3 3 3 3 3 3 3 3 3 3 3 3 4 4 4 3 2 3 3 3 4 4 6 7 7 6 5 6 4 2 3 2 2 2 2 2 2 2 3 3
3 3 3 3 3 3 2 3 2 2 2 2 2 3 2 2 3 4 4 4 4 3 4 4 4 6 6 7 6 6 6 3 2 2 2 2 2 2 2 2 2 3 3
3 4 4 3 3 2 2 2 2 2 2 2 2 2 2 2 2 4 4 5 5 3 3 5 6 6 6 5 5 5 3 2 2 3 3 3 2 2 1 1 1 1 2
3 4 3 3 3 3 2 2 2 2 2 2 2 2 2 2 2 2 2 2 3 3 3 3 4 4 3 3 3 2 2 3 3 3 3 2 1 1 1 1 1 0 0
3 3 3 3 3 3 3 2 2 2 2 3 2 2 2 3 3 3 2 2 2 2 1 0 1 1 1 1 1 1 1 2 2 2 2 2 2 2 1 1 1 1 1
3 3 2 2 2 2 2 3 4 3 5 4 4 3 3 4 4 4 4 4 4 2 1 1 1 1 1 1 2 2 2 2 2 2 2 2 2 2 1 1 1 1 1
3 3 2 2 2 2 2 2 3 4 5 5 4 4 4 4 4 4 4 3 3 2 1 1 2 2 2 2 2 2 2 2 2 2 2 2 2 2 2 2 1 1 1
3 3 3 2 2 2 2 2 2 3 3 4 4 5 4 4 4 4 3 2 2 1 1 2 2 2 2 2 2 2 2 1 1 1 2 2 2 2 2 2 2 2 2
3 2 2 2 2 2 2 2 2 2 2 3 3 4 4 4 4 4 3 1 1 1 1 2 2 2 2 2 2 2 2 2 2 2 2 2 2 2 2 2 2 3 2
2 3 2 2 1 1 2 2 2 2 2 2 3 3 3 2 2 2 2 1 1 2 2 2 2 2 2 2 2 2 2 2 2 2 2 2 2 2 3 3 3 2 2
2 2 3 2 1 2 2 2 2 2 2 2 3 3 3 2 2 2 2 2 2 2 2 2 2 2 2 2 2 2 3 2 2 2 2 2 2 2 2 2 2 2 1
2 2 2 2 2 2 2 2 2 2 2 3 3 3 4 2 2 2 2 2 2 2 2 2 2 2 2 2 3 3 3 3 2 2 2 2 2 2 2 2 2 2 2
2 2 2 2 2 2 2 2 2 2 2 3 3 3 2 2 2 3 3 3 2 3 3 3 3 3 3 3 4 4 3 3 3 3 3 2 2 2 2 2 2 2 2
2 2 2 2 2 2 2 2 2 2 3 3 3 3 3 2 3 3 3 3 3 3 3 3 3 4 4 3 4 4 4 4 4 4 4 3 3 2 2 2 2 2 2
2 2 2 2 2 2 2 2 2 2 3 3 3 3 3 3 3 3 3 3 3 3 3 4 4 4 4 4 4 4 4 4 4 4 4 3 3 3 3 2 2 1 1
2 2 2 2 2 2 2 3 2 2 3 3 3 3 3 3 3 3 3 2 3 3 3 3 4 4 4 4 4 4 4 4 4 4 3 3 3 3 2 2 2 2 1
Wind_Direction
250 246 244 244 237 227 225 230 229 228 223 221 224 224 226 230 224 223 231 227 227 237 238 233 237 227 223 226 225 228 233 224 250 275 266 275 278 293 304 300 293 291 290
251 249 251 251 243 233 233 234 226 227 230 229 229 228 230 233 225 221 228 227 225 230 234 231 238 234 226 226 224 228 237 232 236 270 280 271 266 273 285 293 299 291 288
259 248 255 254 247 243 242 238 230 229 233 233 229 230 231 232 226 224 225 228 229 230 231 231 233 227 230 229 226 230 236 245 236 251 274 273 272 273 289 296 292 291 300
267 251 251 250 245 244 245 242 239 234 234 235 236 237 234 233 228 226 225 228 232 233 232 232 232 228 231 228 231 233 231 239 243 245 262 273 268 271 272 284 298 298 300
280 263 258 256 249 246 243 243 245 245 246 243 243 247 240 235 231 225 223 223 226 232 235 236 237 238 243 239 238 233 224 230 238 244 253 266 266 268 266 267 288 304 297
284 277 272 261 256 251 245 246 248 255 258 257 253 248 243 244 242 235 230 226 225 227 234 240 242 238 247 249 248 245 234 229 233 238 246 250 254 252 253 262 279 305 300
285 287 281 262 259 259 255 250 250 252 253 255 255 249 247 249 244 240 236 231 227 229 232 238 247 247 247 243 249 251 248 245 238 234 239 243 248 244 236 252 255 263 269
289 288 284 273 268 270 261 253 255 261 254 253 254 250 255 254 246 241 240 236 235 237 238 237 239 246 247 245 240 242 247 249 248 242 240 245 247 243 227 230 237 266 275
290 288 284 274 270 269 267 265 267 268 271 264 257 254 250 258 255 246 243 235 240 247 249 243 238 242 251 251 242 244 252 259 262 257 261 265 262 259 250 215 223 256 285
287 285 285 278 271 269 267 269 273 269 269 269 266 256 246 253 257 251 241 229 237 247 253 253 251 255 259 253 239 241 252 259 258 264 266 271 264 245 238 217 208 228 271
292 293 293 288 282 276 277 271 271 277 280 271 266 266 253 251 255 257 250 232 230 244 249 253 256 263 266 261 255 241 253 257 236 235 241 252 247 237 239 250 228 214 234
307 306 300 296 291 292 285 284 277 264 267 265 268 276 265 255 255 256 261 259 249 243 249 249 255 266 268 269 264 254 254 250 234 228 236 245 243 241 248 258 259 255 245
315 309 306 304 300 295 285 282 285 273 262 265 259 267 276 272 258 266 268 264 261 254 254 261 265 269 270 266 265 256 245 228 224 227 240 247 242 231 220 282 324 322 317
305 303 305 302 304 308 301 286 274 269 263 264 264 267 273 272 263 260 259 266 264 268 271 274 279 276 277 268 261 248 237 229 231 229 235 236 230 209 201 209 223 219 346
303 302 307 303 298 303 305 293 279 266 255 254 259 260 262 270 270 274 281 269 246 246 249 254 268 270 248 249 251 239 230 233 248 237 223 222 226 227 222 209 198 209 242
302 303 301 302 301 303 308 317 311 296 300 295 288 284 285 285 287 290 294 292 286 267 248 236 262 264 257 248 242 243 236 234 234 231 216 213 221 221 219 202 201 202 218
288 292 293 291 290 299 305 306 315 325 324 321 314 305 303 301 301 301 303 299 291 275 248 246 246 246 244 244 243 236 241 236 226 220 209 207 207 204 207 208 211 217 225
293 288 291 286 286 292 291 290 292 301 313 318 322 318 314 310 310 311 312 317 310 312 269 258 261 253 239 239 241 232 228 232 233 221 206 202 201 198 206 215 214 216 227
294 299 299 296 294 293 297 294 291 292 294 304 318 325 327 321 320 321 324 313 280 284 277 268 263 256 247 241 239 233 225 227 229 221 212 208 204 200 207 213 216 223 228
299 299 314 307 306 306 308 303 294 288 290 297 303 309 327 336 330 325 327 320 294 284 276 269 265 256 245 241 239 233 233 233 226 225 225 218 210 207 207 210 212 217 228
311 310 315 320 313 305 302 301 302 295 289 289 293 297 309 305 293 295 294 293 283 278 276 271 263 257 245 243 240 236 237 232 219 213 216 217 208 213 209 207 207 209 216
302 304 308 303 306 304 310 307 304 302 292 287 295 302 303 303 293 291 287 287 284 282 278 272 266 259 249 243 237 231 230 227 220 211 212 215 213 210 206 200 202 207 213
303 306 311 311 307 306 314 313 309 303 302 295 293 298 301 296 292 289 287 290 292 289 288 280 275 274 270 258 246 233 226 227 221 209 203 206 210 209 203 204 208 215 221
293 291 294 300 300 301 299 300 303 304 303 303 304 297 290 289 288 288 287 288 290 290 290 283 278 275 271 269 257 248 245 238 225 216 204 200 206 211 209 206 213 215 220
289 287 283 279 282 286 289 291 294 299 302 304 306 306 305 299 291 290 290 290 291 292 291 284 280 277 272 273 265 258 249 236 225 210 203 197 196 204 205 200 203 208 224
285 287 284 278 277 278 280 285 290 295 295 298 301 304 305 304 302 302 300 297 297 294 293 290 287 283 278 277 271 263 249 233 215 201 192 190 187 193 189 187 187 197 203
Height
1476 1476 1476 1477 1477 1477 1477 1478 1478 1478 1478 1478 1478 1478 1478 1478 1478 1478 1478 1479 1479 1479 1480 1481 1481 1482 1483 1484 1485 1485 1485 1486 1484 1483 1484 1484 1483 1483 1482 1482 1480 1479 1478
1472 1472 1472 1472 1472 1472 1473 1473 1474 1473 1473 1473 1473 1473 1473 1474 1474 1474 1474 1474 1475 1475 1476 1476 1477 1478 1478 1479 1480 1480 1481 1481 1480 1479 1479 1479 1479 1478 1478 1477 1476 1475 1474
1468 1468 1468 1468 1468 1468 1468 1468 1469 1469 1469 1469 1469 1468 1468 1469 1469 1469 1469 1469 1470 1470 1471 1472 1472 1473 1473 1474 1475 1475 1476 1476 1476 1475 1474 1474 1474 1474 1473 1472 1472 1470 1469
1464 1464 1463 1463 1463 1464 1464 1464 1464 1464 1464 1464 1464 1463 1463 1464 1464 1464 1464 1465 1465 1465 1466 1467 1467 1468 1468 1469 1470 1471 1471 1471 1471 1471 1470 1469 1469 1469 1468 1467 1466 1465 1464
1460 1460 1459 1459 1459 1460 1459 1459 1459 1459 1459 1459 1458 1458 1458 1459 1459 1459 1460 1460 1460 1461 1461 1462 1462 1463 1464 1465 1465 1466 1466 1466 1466 1466 1465 1465 1465 1464 1464 1463 1462 1460 1460
1457 1456 1456 1456 1456 1455 1455 1455 1455 1454 1454 1454 1453 1453 1453 1454 1454 1455 1455 1455 1455 1456 1456 1457 1457 1458 1459 1460 1461 1461 1462 1462 1461 1462 1461 1461 1460 1460 1460 1459 1458 1456 1455
1453 1453 1453 1452 1452 1452 1451 1451 1450 1450 1449 1449 1448 1448 1448 1449 1449 1450 1451 1451 1451 1451 1451 1452 1452 1453 1454 1455 1455 1456 1457 1457 1457 1458 1457 1456 1456 1456 1456 1455 1454 1452 1452
1450 1449 1449 1449 1448 1448 1447 1447 1446 1445 1445 1444 1444 1444 1444 1444 1445 1445 1446 1446 1446 1446 1447 1447 1447 1448 1449 1450 1450 1450 1451 1451 1452 1452 1452 1452 1452 1452 1452 1451 1450 1449 1448
1446 1446 1446 1445 1445 1444 1443 1443 1442 1441 1440 1440 1439 1439 1439 1439 1440 1441 1442 1442 1442 1442 1442 1443 1443 1443 1444 1445 1445 1445 1445 1446 1446 1447 1447 1447 1447 1448 1447 1447 1445 1444 1443
1443 1443 1442 1442 1441 1440 1439 1439 1438 1437 1436 1435 1435 1435 1435 1435 1436 1437 1437 1437 1437 1438 1438 1438 1439 1439 1440 1440 1441 1441 1440 1441 1441 1441 1442 1442 1442 1442 1443 1442 1441 1440 1439
1440 1439 1439 1438 1438 1437 1436 1435 1434 1433 1432 1432 1432 1432 1432 1432 1432 1433 1433 1434 1434 1434 1434 1434 1434 1435 1435 1436 1436 1436 1436 1437 1437 1437 1437 1437 1437 1437 1437 1438 1437 1437 1436
1437 1436 1436 1435 1434 1433 1432 1431 1430 1430 1429 1428 1428 1429 1429 1429 1429 1429 1430 1430 1430 1430 1430 1430 1431 1431 1431 1431 1432 1432 1432 1432 1432 1432 1432 1432 1432 1432 1433 1433 1433 1433 1433
1434 1433 1432 1432 1431 1430 1429 1428 1427 1426 1425 1425 1425 1425 1425 1425 1426 1426 1427 1427 1427 1427 1427 1427 1427 1427 1427 1427 1427 1427 1427 1428 1428 1427 1427 1428 1428 1428 1429 1429 1429 1429 1429
1431 1430 1429 1428 1427 1427 1426 1425 1424 1423 1423 1422 1422 1421 1421 1422 1422 1423 1423 1423 1423 1423 1423 1423 1423 1423 1423 1422 1422 1422 1423 1423 1423 1423 1423 1424 1424 1424 1424 1425 1425 1425 1425
1428 1427 1426 1425 1424 1424 1423 1423 1422 1421 1421 1420 1419 1419 1419 1419 1420 1420 1420 1420 1420 1420 1419 1419 1419 1419 1418 1418 1418 1418 1419 1419 1419 1419 1420 1420 1420 1420 1421 1421 1422 1422 1421
1425 1424 1424 1423 1422 1421 1421 1420 1419 1419 1418 1418 1417 1417 1417 1417 1417 1417 1417 1417 1417 1417 1417 1416 1416 1416 1415 1415 1415 1415 1415 1415 1416 1416 1416 1416 1417 1417 1417 1418 1419 1419 1419
1423 1422 1421 1420 1420 1419 1418 1417 1416 1416 1416 1416 1415 1415 1415 1414 1414 1414 1414 1414 1414 1414 1413 1413 1413 1413 1413 1413 1412 1412 1412 1413 1413 1413 1413 1413 1414 1414 1414 1415 1416 1416 1416
1421 1420 1419 1418 1418 1417 1416 1416 1415 1414 1413 1413 1413 1412 1412 1412 1412 1411 1411 1411 1411 1411 1410 1410 1410 1410 1410 1410 1410 1410 1410 1410 1410 1410 1410 1410 1411 1411 1412 1413 1413 1414 1414
1419 1418 1417 1416 1416 1415 1415 1414 1414 1413 1412 1411 1410 1410 1410 1409 1409 1409 1409 1409 1408 1408 1408 1407 1407 1407 1407 1407 1407 1407 1407 1407 1407 1408 1408 1408 1408 1409 1410 1411 1411 1411 1412
1416 1416 1415 1414 1414 1414 1413 1412 1412 1411 1410 1409 1408 1408 1407 1407 1406 1406 1406 1406 1406 1405 1405 1405 1405 1405 1405 1405 1405 1404 1404 1405 1405 1405 1405 1406 1406 1407 1407 1408 1409 1409 1409
1414 1414 1413 1413 1412 1412 1411 1411 1410 1409 1408 1407 1407 1406 1406 1405 1405 1404 1404 1404 1403 1403 1403 1403 1403 1402 1402 1402 1402 1402 1402 1402 1402 1403 1403 1403 1404 1404 1405 1406 1406 1407 1407
1413 1412 1411 1411 1410 1410 1409 1409 1408 1407 1406 1405 1404 1404 1404 1403 1403 1402 1402 1402 1401 1401 1401 1400 1400 1400 1400 1400 1400 1400 1400 1400 1400 1400 1401 1401 1402 1402 1403 1404 1404 1405 1405
1411 1410 1410 1409 1409 1408 1407 1407 1406 1405 1404 1403 1403 1402 1402 1401 1401 1400 1400 1399 1399 1398 1398 1398 1398 1398 1398 1397 1397 1397 1397 1397 1398 1398 1399 1399 1400 1400 1401 1402 1402 1403 1403
1409 1408 1408 1407 1407 1406 1405 1404 1404 1403 1402 1402 1401 1400 1400 1399 1399 1398 1398 1397 1396 1396 1396 1395 1395 1395 1395 1395 1395 1395 1395 1395 1396 1396 1397 1397 1398 1398 1399 1400 1400 1401 1401
1407 1406 1405 1405 1404 1404 1403 1403 1402 1401 1400 1400 1399 1398 1398 1397 1396 1396 1395 1395 1394 1394 1393 1393 1393 1392 1392 1392 1392 1392 1392 1393 1393 1394 1394 1395 1396 1396 1397 1398 1398 1399 1399
1404 1404 1403 1403 1402 1402 1401 1401 1400 1399 1399 1398 1397 1397 1396 1395 1394 1394 1393 1393 1392 1391 1391 1390 1390 1390 1390 1390 1390 1390 1390 1390 1391 1391 1392 1393 1394 1394 1395 1396 1397 1397 1398